Flag for Canada Weather past 2 weeks in Cambridge, Ontario, Canada

Now
41 °F

Sunny.


Feels Like: 33 °F
Forecast: 29 / 51 °F
Wind: 15 mph from Southeast

Location: Waterloo Well


UV Index: 5 (Moderate)

Visibility: 9 mi


Pressure: 30.49 "Hg

Humidity: 49%

Dew point: 23 °F

Location of CambridgeLocation

Historic Weather in Cambridge

°F

Cambridge temperature yesterday

Maximum temperature yesterday: 37 °F (at 4:00 PM)
Minimum temperature yesterday: 18 °F (at 4:00 AM)
Average temperature yesterday: 27 °F

Past Weeks' High & Low Weather Summary

 TemperatureHumidityPressure
High70 °F (Apr 13, 6:00 PM)100% (Apr 4, 10:02 AM)30.54 "Hg (Apr 4, 10:02 AM)
Low18 °F (Apr 16, 4:00 AM)25% (Apr 11, 2:00 PM)29.34 "Hg (Apr 8, 4:01 AM)
Average39 °F74%29.93 "Hg
* Reported Apr 2 11:00 AM — Apr 17 11:00 AM, Cambridge, Weather by CustomWeather, © 2014

Note: Actual official high and low records may vary slightly from our data, if they occured in-between our weather recording intervals... More about our weather records

Advertising

Historic Weather Conditions — Data for Previous 24 hours

 ConditionsComfort  
Time TempWeatherWind HumidityBarometerVisibility
11:00 AM
Apr 17
41 °FSunny.15 mph49%30.49 "Hg9 mi
10:00 AM37 °FSunny.14 mph60%30.49 "Hg9 mi
9:00 AM34 °FSunny.12 mph70%30.50 "Hg9 mi
8:00 AM30 °FSunny.14 mph75%30.51 "Hg9 mi
7:00 AM28 °FClear.16 mph80%30.51 "Hg9 mi
6:00 AM28 °FClear.13 mph80%30.50 "Hg9 mi
5:00 AM28 °FClear.14 mph74%30.48 "Hg9 mi
4:00 AM28 °FClear.13 mph74%30.50 "Hg9 mi
3:00 AM28 °FClear.14 mph80%30.50 "Hg9 mi
2:00 AM28 °FClear.10 mph74%30.52 "Hg9 mi
1:00 AM25 °FClear.6 mph86%30.53 "Hg9 mi
12:00 AM25 °FClear.7 mph86%30.51 "Hg9 mi
11:00 PM
Apr 16
28 °FClear.7 mph74%30.52 "Hg9 mi
10:00 PM28 °FClear.7 mph74%30.54 "Hg9 mi
9:00 PM32 °FSunny.9 mph69%30.52 "Hg9 mi
8:00 PM34 °FSunny.10 mph65%30.50 "Hg9 mi
7:00 PM36 °FSunny.6 mph48%30.48 "Hg9 mi
6:00 PM37 °FSunny.3 mph41%30.48 "Hg9 mi
5:00 PM36 °FSunny.6 mph41%30.47 "Hg9 mi
4:00 PM37 °FScattered clouds.9 mph45%30.47 "Hg9 mi
3:00 PM36 °FPartly sunny.5 mph52%30.48 "Hg9 mi
2:00 PM34 °FPartly sunny.3 mph56%30.50 "Hg9 mi
1:00 PM32 °FPartly sunny.8 mph51%30.50 "Hg9 mi
12:00 PM30 °FPartly sunny.12 mph59%30.50 "Hg9 mi
Weather by CustomWeather, © 2014

See weather overview